Weather History for Casper, WY

Change the Weather History Date:

Thursday, April 4, 2013

  Actual Average Record
Temperature  
Mean Temperature 48 °F 40 °F  
Max Temperature 69 °F 53 °F 74 °F (1992)
Min Temperature 27 °F 26 °F 5 °F (1968)
Degree Days  
Heating Degree Days 17 25  
Month to date heating degree days 86 102  
Since 1 July heating degree days 6097 6475  
Cooling Degree Days 0 0  
Month to date cooling degree days 0 0  
Year to date cooling degree days 0 0  
Moisture  
Dew Point 26 °F    
Average Humidity 54    
Maximum Humidity 92    
Minimum Humidity 15    
Precipitation  
Precipitation 0.00 in 0.04 in 0.29 in (1958)
Month to date precipitation 0.01 0.14  
Year to date precipitation 1.63 2.04  
Snow  
Snow 0.00 in 0.50 in - ()
Month to date snowfall 0.0 1.8  
Since 1 July snowfall 43.2 62.1  
Snow Depth 0.00 in    
Sea Level Pressure  
Sea Level Pressure 29.96 in    
Wind  
Wind Speed 10 mph (WSW)    
Max Wind Speed 24 mph    
Max Gust Speed 29 mph    
Visibility 10 miles    
Events      
T = Trace of Precipitation, MM = Missing Value Source: NWS Daily Summary

Daily Weather History Graph

Daily Weather History Graph

Search for Another Location

Airport:

Trip Planner

Search our weather history database for the weather conditions in past years. The results will help you decide how hot, cold, wet, or windy it might be!

Date:

Astronomy

Apr. 04, 2013 Rise Set
Actual Time 6:42 AM MDT 7:35 PM MDT
Civil Twilight 6:13 AM MDT 8:04 PM MDT
Nautical Twilight 5:39 AM MDT 8:39 PM MDT
Astronomical Twilight 5:03 AM MDT 9:14 PM MDT
Moon 3:19 AM MDT (4/4) 1:49 PM MDT (4/4)
Length of Visible Light 13h 51m
Length of Day
12h 53m
Waning Crescent, 33% of the Moon is Illuminated
Apr 4
Waning Crescent
Apr 10
New
Apr 18
First Quarter
Apr 25
Full
May 2
Last Quarter

Hourly Weather History & Observations

Time (MDT) Temp. Windchill Dew Point Humidity Pressure Visibility Wind Dir Wind Speed Gust Speed Precip Events Conditions
12:53 AM 32.0 °F 27.5 °F 28.9 °F 88% 30.08 in 10.0 mi ENE 4.6 mph - N/A   Clear
1:53 AM 30.9 °F - 28.9 °F 92% 30.09 in 10.0 mi Calm Calm - N/A   Clear
2:53 AM 28.0 °F 20.0 °F 25.0 °F 88% 30.07 in 10.0 mi West 8.1 mph - N/A   Clear
3:53 AM 28.0 °F 21.7 °F 26.1 °F 92% 30.07 in 10.0 mi WNW 5.8 mph - N/A   Clear
4:53 AM 30.9 °F 21.7 °F 26.1 °F 82% 30.07 in 10.0 mi WSW 11.5 mph - N/A   Clear
5:53 AM 30.9 °F - 27.0 °F 85% 30.07 in 10.0 mi Calm Calm - N/A   Clear
6:53 AM 39.0 °F 34.8 °F 30.0 °F 70% 30.06 in 10.0 mi SW 5.8 mph - N/A   Clear
7:53 AM 44.1 °F 37.7 °F 34.0 °F 68% 30.05 in 10.0 mi SW 12.7 mph - N/A   Clear
8:53 AM 50.0 °F - 32.0 °F 50% 30.05 in 10.0 mi SW 16.1 mph 25.3 mph N/A   Clear
9:53 AM 53.1 °F - 30.0 °F 41% 30.04 in 10.0 mi SSW 20.7 mph 26.5 mph N/A   Clear
10:53 AM 57.0 °F - 28.0 °F 33% 30.04 in 10.0 mi SSW 20.7 mph - N/A   Clear
11:53 AM 61.0 °F - 28.0 °F 29% 30.01 in 10.0 mi SSW 16.1 mph 23.0 mph N/A   Clear
12:53 PM 63.0 °F - 23.0 °F 22% 29.97 in 10.0 mi WNW 11.5 mph - N/A   Mostly Cloudy
1:53 PM 66.0 °F - 21.0 °F 18% 29.94 in 10.0 mi WSW 13.8 mph 19.6 mph N/A   Partly Cloudy
2:53 PM 68.0 °F - 19.9 °F 16% 29.92 in 10.0 mi West 15.0 mph 19.6 mph N/A   Partly Cloudy
3:53 PM 66.0 °F - 21.0 °F 18% 29.91 in 10.0 mi SW 9.2 mph - N/A   Clear
4:53 PM 68.0 °F - 23.0 °F 18% 29.86 in 10.0 mi West 16.1 mph 23.0 mph N/A   Scattered Clouds
5:53 PM 68.0 °F - 24.1 °F 19% 29.85 in 10.0 mi West 10.4 mph - N/A   Mostly Cloudy
6:53 PM 62.1 °F - 21.0 °F 21% 29.84 in 10.0 mi NNW 8.1 mph - N/A   Partly Cloudy
7:53 PM 54.0 °F - 23.0 °F 30% 29.85 in 10.0 mi Calm Calm - N/A   Clear
8:53 PM 53.1 °F - 25.0 °F 34% 29.83 in 10.0 mi SSW 4.6 mph - N/A   Clear
9:53 PM 50.0 °F - 28.0 °F 43% 29.83 in 10.0 mi SSW 4.6 mph - N/A   Clear
10:53 PM 51.1 °F - 27.0 °F 39% 29.80 in 10.0 mi WSW 3.5 mph - N/A   Clear
11:53 PM 53.1 °F - 26.1 °F 35% 29.76 in 10.0 mi SW 9.2 mph - N/A   Clear